This is the latest recevied weather packets stored in our database for station/object OK1LPD-6. If no packets are shown the sender has not sent any weather packets the latest 10 day(s).
| Time | Temp. | Humidity | Pressure | Rain* | Wind** | Luminosity | Snow |
|---|---|---|---|---|---|---|---|
| 1777790731 | 16.67° C | 50% | 1017.3 hPa | 0 mm | - | - | - |
| 1777790112 | 16.11° C | 52% | 1017.3 hPa | 0 mm | - | - | - |
| 1777789512 | 15° C | 52% | 1017.3 hPa | 0 mm | - | - | - |
| 1777788933 | 14.44° C | 52% | 1017.3 hPa | 0 mm | - | - | - |
| 1777788312 | 13.89° C | 56% | 1017.3 hPa | 0 mm | - | - | - |
| 1777787713 | 13.33° C | 56% | 1017.4 hPa | 0 mm | - | - | - |
| 1777787131 | 12.78° C | 58% | 1017.3 hPa | 0 mm | - | - | - |
| 1777786514 | 12.22° C | 62% | 1017.3 hPa | 0 mm | - | - | - |
| 1777785913 | 11.11° C | 64% | 1017.2 hPa | 0 mm | - | - | - |
| 1777785333 | 10.56° C | 64% | 1017.6 hPa | 0 mm | - | - | - |
| 1777784713 | 10.56° C | 69% | 1017.5 hPa | 0 mm | - | - | - |
| 1777784113 | 10° C | 70% | 1017.4 hPa | 0 mm | - | - | - |
| 1777783532 | 10° C | 70% | 1017.5 hPa | 0 mm | - | - | - |
| 1777782914 | 9.44° C | 70% | 1017.4 hPa | 0 mm | - | - | - |
| 1777781730 | 8.89° C | 71% | 1017.3 hPa | 0 mm | - | - | - |
| 1777781114 | 8.33° C | 72% | 1017.2 hPa | 0 mm | - | - | - |
| 1777780515 | 8.33° C | 71% | 1017 hPa | 0 mm | - | - | - |
| 1777779924 | 8.33° C | 71% | 1017 hPa | 0 mm | - | - | - |
| 1777779314 | 8.33° C | 71% | 1016.9 hPa | 0 mm | - | - | - |
| 1777778714 | 8.33° C | 71% | 1017 hPa | 0 mm | - | - | - |
| 1777778126 | 8.33° C | 71% | 1017 hPa | 0 mm | - | - | - |
| 1777777515 | 8.33° C | 71% | 1017 hPa | 0 mm | - | - | - |
| 1777776915 | 8.89° C | 70% | 1017.1 hPa | 0 mm | - | - | - |
| 1777776324 | 8.89° C | 70% | 1017 hPa | 0 mm | - | - | - |
| 1777775716 | 8.89° C | 70% | 1017.1 hPa | 0 mm | - | - | - |
* Rain latest hour (hover to see other rain measurements)
** Current wind speed in m/s (hover to see current wind gust speed)